[[[{"header":{"parameterUnit":"kt","parameterCategory":2,"dx":1,"dy":1,"la1":30.253999710083008,"la2":30.299108505249023,"lo1":-89.0895004272461,"lo2":-89.04439544677734,"nx":28,"ny":28,"refTime":"2022-09-23T21:00:00:Z","depth":0,"parameterNumber":1,"parameterNumberName":"U-component_of_WINDS"},"data":[-3.7976,-3.8071,-3.8093,-3.821,-3.825,-3.8335,-3.8372,-3.8423,-3.847,-3.8574,-3.8638,-3.8671,-3.8727,-3.881,-3.8881,-3.8894,-3.8923,-3.894,-3.8952,-3.8856,-3.8844,-3.8833,-3.8811,-3.8946,-3.8946,-3.9049,-3.905,-3.905,-3.7903,-3.7943,-3.8012,-3.8094,-3.8153,-3.815,-3.8215,-3.8265,-3.8341,-3.8399,-3.8464,-3.8558,-3.8636,-3.8687,-3.8766,-3.8812,-3.8815,-3.8831,-3.8828,-3.8837,-3.8735,-3.8712,-3.8827,-3.8827,-3.8827,-3.8827,-3.8827,-3.8827,-3.7775,-3.7831,-3.7893,-3.7968,-3.8016,-3.807,-3.8128,-3.8166,-3.8234,-3.8318,-3.8332,-3.842,-3.8483,-3.8589,-3.8631,-3.87,-3.8687,-3.8712,-3.8718,-3.8724,-3.8727,-3.8574,-3.8715,-3.8715,-3.8715,-3.8714,-3.8714,0,-3.7689,-3.7703,-3.7771,-3.7845,-3.7901,-3.7961,-3.802,-3.8056,-3.8096,-3.8151,-3.8233,-3.8284,-3.8385,-3.8465,-3.8544,-3.8583,-3.8586,-3.859,-3.8607,-3.8601,-3.8585,-3.8594,-3.8426,-3.8585,-3.8584,-3.8584,-3.8583,-3.8583,-3.7561,-3.7624,-3.77,-3.7744,-3.7782,-3.7853,-3.7901,-3.7931,-3.798,-3.8058,-3.8106,-3.8187,-3.8252,-3.8381,-3.8427,-3.8503,-3.8505,-3.8564,-3.8517,-3.8508,-3.8506,-3.8502,-3.8508,-3.8572,-3.8573,-3.8574,-3.8575,0,-3.7488,-3.7523,-3.7627,-3.7697,-3.7716,-3.778,-3.784,-3.7897,-3.7929,-3.8013,-3.8034,-3.8084,-3.8164,-3.8201,-3.83,-3.8317,-3.8425,-3.8426,-3.8403,-3.8405,-3.8461,-3.8455,-3.8636,-3.8661,-3.8522,-3.8524,-3.8525,0,-3.7393,-3.7474,-3.7523,-3.7581,-3.7672,-3.77,-3.779,-3.7826,-3.788,-3.7946,-3.7955,-3.8017,-3.8054,-3.8122,-3.8147,-3.8242,-3.8261,-3.8279,-3.8285,-3.8279,-3.8276,-3.8305,-3.8299,-3.8296,-3.8295,-3.8294,-3.8293,0,-3.7273,-3.7394,-3.749,-3.7523,-3.7605,-3.765,-3.7686,-3.7747,-3.7794,-3.786,-3.7891,-3.7967,-3.8008,-3.8067,-3.8098,-3.8065,-3.8215,-3.8176,-3.8234,-3.8233,-3.8265,-3.8263,-3.8414,-3.8292,-3.8292,-3.8291,-3.8291,0,-3.7202,-3.7267,-3.74,-3.7469,-3.7499,-3.7563,-3.7638,-3.77,-3.7764,-3.7784,-3.7836,-3.7847,-3.7932,-3.7891,-3.801,-3.7958,-3.7998,-3.8024,-3.8029,-3.8039,-3.7991,-3.8071,-3.8212,-3.8227,-3.8048,-3.8046,-3.8044,0,-3.7056,-3.7199,-3.7223,-3.7349,-3.742,-3.7425,-3.7496,-3.7552,-3.7583,-3.7649,-3.7684,-3.7759,-3.7736,-3.7764,-3.7818,-3.7858,-3.7926,-3.785,-3.7946,-3.7949,-3.7928,-3.8058,-3.8069,-3.8177,-3.8019,-3.8021,-3.8023,0,-3.6946,-3.7045,-3.7065,-3.7105,-3.7183,-3.7242,-3.7324,-3.7403,-3.7446,-3.7508,-3.7577,-3.7684,-3.7671,-3.7718,-3.7734,-3.7789,-3.7881,-3.7768,-3.777,-3.7787,-3.8009,-3.8019,-3.8037,-3.788,-3.7884,-3.7886,-3.8003,0,-3.6831,-3.6907,-3.6964,-3.705,-3.7102,-3.7183,-3.722,-3.7269,-3.7279,-3.7311,-3.7413,-3.747,-3.7552,-3.7582,-3.7593,-3.7706,-3.7693,-3.7678,-3.764,-3.7725,-3.7765,-3.7781,-3.7578,-3.7577,-3.7577,-3.7576,0,0,-3.6682,-3.6791,-3.6816,-3.6895,-3.694,-3.6943,-3.7026,-3.7071,-3.7161,-3.7192,-3.7171,-3.7329,-3.7376,-3.7497,-3.7527,-3.756,-3.7584,-3.7553,-3.7684,-3.7696,-3.7707,-3.7749,-3.7765,-3.7575,-3.7574,-3.7574,-3.7574,0,-3.6647,-3.6693,-3.6774,-3.6821,-3.6891,-3.6919,-3.6939,-3.7009,-3.7033,-3.7133,-3.7136,-3.7202,-3.7328,-3.7377,-3.7419,-3.7539,-3.7538,-3.7562,-3.7614,-3.7676,-3.7688,-3.77,-3.7743,-3.7758,-3.7572,-3.7572,-3.7572,0,-3.6546,-3.6597,-3.664,-3.6742,-3.6788,-3.6861,-3.683,-3.6909,-3.6964,-3.6964,-3.7064,-3.7101,-3.717,-3.7279,-3.733,-3.7313,-3.7493,-3.7443,-3.7449,-3.7455,-3.7517,-3.7533,-3.7546,-3.7365,-3.7364,-3.7363,0,0,-3.6511,-3.6582,-3.6646,-3.6737,-3.6766,-3.681,-3.6852,-3.6867,-3.6928,-3.6952,-3.6999,-3.7059,-3.7133,-3.718,-3.7251,-3.7366,-3.7383,-3.7416,-3.7426,-3.7433,-3.7444,-3.7508,-3.7523,-3.736,-3.736,-3.736,0,0,-3.6495,-3.6572,-3.6571,-3.6681,-3.6739,-3.6809,-3.6863,-3.6864,-3.6931,-3.6926,-3.6955,-3.6973,-3.7076,-3.7112,-3.7062,-3.7239,-3.7201,-3.7213,-3.7211,-3.7224,-3.7234,-3.7223,-3.7039,0,0,0,0,0,-3.6478,-3.6562,-3.656,-3.6584,-3.6714,-3.6809,-3.6826,-3.6851,-3.6823,-3.6866,-3.6905,-3.6901,-3.7091,-3.7048,-3.7072,-3.7127,-3.7317,-3.7325,-3.7332,-3.7356,-3.7369,-3.738,0,0,0,0,0,0,-3.6488,-3.6517,-3.6558,-3.6631,-3.666,-3.6806,-3.6765,-3.6774,-3.6819,-3.6817,-3.6893,-3.6903,-3.6927,-3.7038,-3.7059,-3.711,-3.7032,-3.732,-3.7326,-3.7332,-3.7361,-3.7372,-3.7381,0,0,0,0,0,-3.6495,-3.6519,-3.6719,-3.663,-3.6656,-3.6709,-3.6762,-3.6769,-3.6805,-3.6866,-3.6875,-3.6819,-3.6928,-3.6947,-3.705,-3.71,-3.7018,-3.7026,-3.7324,-3.7329,-3.7334,-3.7366,0,0,0,0,0,0,-3.6501,-3.6527,-3.6725,-3.6733,-3.66,-3.6701,-3.6718,-3.6765,-3.6851,-3.6862,-3.6793,-3.679,-3.6929,-3.6944,-3.6959,-3.7095,-3.7006,-3.7014,-3.7019,-3.7328,-3.7332,-3.7336,0,0,0,0,0,0,-3.6514,-3.6534,-3.6729,-3.6689,-3.6694,-3.6694,-3.6709,-3.68,-3.6852,-3.6774,-3.6774,-3.6791,-3.6907,-3.6943,-3.6954,-3.7096,-3.6997,-3.7004,-3.701,-3.7013,-3.7331,-3.7334,0,0,0,0,0,0,-3.6523,-3.654,-3.6687,-3.6691,-3.6694,-3.6794,-3.6775,-3.6907,-3.6817,-3.677,-3.6809,-3.6806,-3.6906,-3.6918,-3.6951,-3.7087,-3.7094,-3.6997,-3.7002,-3.7006,-3.7008,0,0,0,0,0,0,0,-3.653,-3.641,-3.6673,-3.6692,-3.6695,-3.6814,-3.6816,-3.6819,-3.6816,-3.6813,-3.681,-3.6807,-3.6953,-3.6962,-3.697,-3.708,0,0,-3.6996,-3.7,0,0,0,0,0,0,0,0,-3.6403,-3.6408,-3.6673,-3.6675,-3.6677,-3.6814,-3.6816,-3.6818,-3.6815,-3.6813,-3.6811,-3.6809,-3.6955,-3.6962,-3.6969,0,0,0,0,0,0,0,0,0,0,0,0,0,0,0,-3.6673,-3.6675,0,-3.6815,-3.6816,-3.6818,-3.6815,-3.6813,-3.6811,-3.6809,-3.6957,-3.6963,-3.6969,0,0,0,0,0,0,0,0,0,0,0,0,0,0,0,0,0,0,0,0,0,0,0,0,0,0,0,0,0,0,0,0,0,0,0,0,0,0,0,0,0,0,0,0,0,0,0,0,0,0,0,0,0,0,0,0,0,0,0,0,0,0,0,0,0,0,0,0,0]}],[{"header":{"parameterUnit":"kt","parameterCategory":2,"dx":1,"dy":1,"la1":30.253999710083008,"la2":30.299108505249023,"lo1":-89.0895004272461,"lo2":-89.04439544677734,"nx":28,"ny":28,"refTime":"2022-09-23T21:00:00:Z","depth":0,"parameterNumber":2,"parameterNumberName":"V-component_of_WINDS"},"data":[-2.1908,-2.1923,-2.1896,-2.1901,-2.1878,-2.1875,-2.1866,-2.1851,-2.1831,-2.1825,-2.1816,-2.179,-2.1758,-2.174,-2.1728,-2.1716,-2.1713,-2.1737,-2.1719,-2.1634,-2.1621,-2.1608,-2.1602,-2.1737,-2.1737,-2.181,-2.181,-2.1811,-2.1846,-2.1823,-2.1819,-2.1795,-2.179,-2.175,-2.1728,-2.1726,-2.1725,-2.1702,-2.1692,-2.1683,-2.1673,-2.1633,-2.1618,-2.1622,-2.1602,-2.162,-2.1619,-2.1614,-2.1523,-2.1517,-2.1637,-2.1637,-2.1637,-2.1637,-2.1637,-2.1637,-2.1726,-2.1737,-2.1707,-2.1701,-2.1682,-2.1667,-2.1671,-2.1639,-2.1633,-2.1616,-2.1584,-2.1582,-2.1553,-2.1521,-2.1504,-2.15,-2.1475,-2.1486,-2.1488,-2.1491,-2.1498,-2.1395,-2.1497,-2.1496,-2.1496,-2.1495,-2.1495,0,-2.1629,-2.1606,-2.16,-2.1585,-2.158,-2.1566,-2.1548,-2.155,-2.1491,-2.1489,-2.1483,-2.1474,-2.1458,-2.1448,-2.1428,-2.1407,-2.1363,-2.1357,-2.1364,-2.1378,-2.1394,-2.1384,-2.1236,-2.1354,-2.1352,-2.1351,-2.1351,-2.135,-2.1505,-2.1521,-2.1477,-2.1476,-2.146,-2.146,-2.1454,-2.14,-2.1396,-2.1366,-2.1377,-2.1367,-2.1357,-2.1351,-2.1312,-2.1299,-2.1278,-2.1325,-2.1275,-2.1289,-2.1276,-2.1275,-2.1276,-2.1336,-2.1338,-2.1339,-2.1341,0,-2.1437,-2.1393,-2.141,-2.1364,-2.1353,-2.1373,-2.1333,-2.1341,-2.1309,-2.1315,-2.1314,-2.1263,-2.1258,-2.121,-2.1195,-2.117,-2.1199,-2.1179,-2.1208,-2.1201,-2.1238,-2.1235,-2.1369,-2.1383,-2.1244,-2.1245,-2.1247,0,-2.1314,-2.1337,-2.1269,-2.1281,-2.1305,-2.125,-2.1275,-2.125,-2.1224,-2.1229,-2.1173,-2.1178,-2.1117,-2.1116,-2.108,-2.1094,-2.1092,-2.1073,-2.1063,-2.1078,-2.108,-2.1074,-2.1067,-2.1042,-2.1041,-2.1041,-2.104,0,-2.1211,-2.1203,-2.1222,-2.1213,-2.1167,-2.1177,-2.1158,-2.1129,-2.1124,-2.1109,-2.1105,-2.1092,-2.1084,-2.1075,-2.1028,-2.0996,-2.1046,-2.0992,-2.1027,-2.1028,-2.104,-2.104,-2.1171,-2.1039,-2.1039,-2.1039,-2.1039,0,-2.1104,-2.1092,-2.1126,-2.1086,-2.1086,-2.1099,-2.1082,-2.1082,-2.1056,-2.1034,-2.1022,-2.0979,-2.0989,-2.0939,-2.0951,-2.0922,-2.0918,-2.0901,-2.0903,-2.09,-2.0845,-2.0924,-2.1055,-2.1066,-2.0898,-2.0897,-2.0896,0,-2.0999,-2.1022,-2.0976,-2.101,-2.1014,-2.095,-2.0963,-2.0942,-2.0914,-2.0912,-2.0881,-2.088,-2.0833,-2.0826,-2.0839,-2.0806,-2.0844,-2.0799,-2.0796,-2.0797,-2.0804,-2.0924,-2.0955,-2.1031,-2.088,-2.0882,-2.0883,0,-2.0911,-2.0856,-2.0866,-2.0852,-2.0816,-2.0819,-2.0835,-2.0822,-2.0824,-2.0807,-2.0817,-2.0815,-2.0779,-2.0769,-2.0732,-2.0748,-2.0817,-2.0707,-2.0705,-2.0727,-2.0869,-2.0898,-2.0911,-2.0788,-2.079,-2.0792,-2.0871,0,-2.0757,-2.0764,-2.0788,-2.0762,-2.0757,-2.0777,-2.0727,-2.0729,-2.0694,-2.0664,-2.0679,-2.065,-2.0638,-2.0641,-2.0607,-2.0659,-2.0643,-2.0604,-2.0551,-2.0631,-2.0655,-2.0666,-2.0518,-2.0516,-2.0515,-2.0513,0,0,-2.0667,-2.0675,-2.0623,-2.0637,-2.0629,-2.0563,-2.0588,-2.0573,-2.0546,-2.0542,-2.0512,-2.0506,-2.0484,-2.0508,-2.0529,-2.0525,-2.0529,-2.0503,-2.0594,-2.0603,-2.0611,-2.0638,-2.065,-2.0511,-2.051,-2.0509,-2.0509,0,-2.06,-2.058,-2.0605,-2.0588,-2.056,-2.0527,-2.0533,-2.0494,-2.0476,-2.0492,-2.0436,-2.044,-2.0438,-2.0421,-2.0412,-2.0499,-2.0457,-2.0499,-2.0562,-2.058,-2.0591,-2.0601,-2.063,-2.0642,-2.0505,-2.0505,-2.0506,0,-2.0504,-2.0475,-2.0483,-2.0464,-2.0446,-2.0452,-2.0384,-2.0394,-2.0398,-2.0325,-2.0342,-2.0319,-2.0293,-2.0323,-2.0334,-2.0307,-2.0395,-2.0359,-2.0368,-2.0368,-2.0382,-2.0396,-2.0408,-2.0248,-2.0247,-2.0247,0,0,-2.0453,-2.0459,-2.0412,-2.0446,-2.0438,-2.039,-2.0389,-2.0354,-2.0332,-2.0324,-2.0294,-2.0274,-2.0272,-2.0272,-2.0267,-2.0307,-2.0296,-2.0329,-2.0341,-2.0352,-2.0357,-2.0375,-2.0388,-2.0244,-2.0244,-2.0244,0,0,-2.0429,-2.0375,-2.0344,-2.0378,-2.0359,-2.0315,-2.0338,-2.0299,-2.029,-2.0282,-2.0224,-2.0216,-2.0243,-2.0223,-2.0194,-2.0247,-2.0195,-2.0201,-2.0259,-2.0274,-2.0285,-2.0289,-2.012,0,0,0,0,0,-2.0335,-2.0381,-2.0354,-2.0352,-2.0329,-2.033,-2.0327,-2.028,-2.0244,-2.0263,-2.0231,-2.0187,-2.0195,-2.0168,-2.0167,-2.02,-2.021,-2.0216,-2.0222,-2.0305,-2.0321,-2.0334,0,0,0,0,0,0,-2.0334,-2.0332,-2.0352,-2.0311,-2.0305,-2.0328,-2.0257,-2.0245,-2.0241,-2.0232,-2.0194,-2.0186,-2.0146,-2.0165,-2.0165,-2.0197,-2.012,-2.0213,-2.0218,-2.0222,-2.0311,-2.0324,-2.0335,0,0,0,0,0,-2.0333,-2.0332,-2.0307,-2.031,-2.0305,-2.0253,-2.0255,-2.0244,-2.024,-2.0192,-2.0182,-2.0205,-2.0148,-2.0145,-2.0164,-2.0199,-2.0119,-2.012,-2.0216,-2.022,-2.0224,-2.0317,0,0,0,0,0,0,-2.0332,-2.0322,-2.0305,-2.0301,-2.0289,-2.0251,-2.0244,-2.0244,-2.0199,-2.019,-2.0199,-2.0193,-2.015,-2.0147,-2.0145,-2.0202,-2.0119,-2.0119,-2.012,-2.0219,-2.0222,-2.0225,0,0,0,0,0,0,-2.0322,-2.032,-2.0303,-2.0279,-2.0273,-2.0249,-2.0243,-2.0253,-2.0199,-2.0209,-2.0202,-2.0197,-2.0153,-2.0149,-2.0147,-2.0165,-2.0119,-2.0119,-2.0119,-2.0119,-2.0222,-2.0224,0,0,0,0,0,0,-2.032,-2.0318,-2.028,-2.0275,-2.0269,-2.0228,-2.0257,-2.0236,-2.0179,-2.0212,-2.0173,-2.017,-2.0157,-2.0154,-2.0149,-2.0168,-2.0166,-2.0119,-2.0119,-2.0119,-2.0119,0,0,0,0,0,0,0,-2.0319,-2.0346,-2.0324,-2.0271,-2.0266,-2.0271,-2.027,-2.0269,-2.0179,-2.0176,-2.0174,-2.0171,-2.0118,-2.0118,-2.0118,-2.0171,0,0,-2.0119,-2.0119,0,0,0,0,0,0,0,0,-2.0346,-2.0346,-2.0324,-2.0323,-2.0323,-2.0271,-2.027,-2.0269,-2.0178,-2.0176,-2.0174,-2.0172,-2.0118,-2.0118,-2.0118,0,0,0,0,0,0,0,0,0,0,0,0,0,0,0,-2.0324,-2.0323,0,-2.0271,-2.027,-2.0269,-2.0178,-2.0176,-2.0175,-2.0173,-2.0118,-2.0118,-2.0118,0,0,0,0,0,0,0,0,0,0,0,0,0,0,0,0,0,0,0,0,0,0,0,0,0,0,0,0,0,0,0,0,0,0,0,0,0,0,0,0,0,0,0,0,0,0,0,0,0,0,0,0,0,0,0,0,0,0,0,0,0,0,0,0,0,0,0,0,0]}]]]